Wind_Speed
22 20 20 21 21 20 19 17 16 15 15 14 14 13 12 12 12 13 14 15 15 14 15 16 16 15 15 14 13 13 12 11 11 10 10 10 11 12 13 16 18 20 19 17 15 14 16 14 13 13 12 12 11 10 10 11 11 10 10 9 9 10
23 22 22 22 21 20 19 18 17 16 16 16 14 13 13 13 13 14 15 15 15 14 14 14 15 14 13 13 13 14 13 12 12 12 12 12 12 13 14 16 19 20 19 18 16 15 16 14 13 14 13 13 12 12 11 12 12 12 12 11 11 11
23 23 23 23 21 20 19 18 18 18 18 16 15 14 14 13 12 13 16 15 14 13 13 12 14 14 14 14 13 14 13 12 11 11 12 12 13 13 15 17 19 20 19 19 18 16 14 14 14 14 14 14 13 12 12 12 13 13 13 13 13 13
24 24 24 23 22 21 20 19 19 19 18 16 15 14 13 13 12 13 16 15 12 11 12 13 14 15 15 14 13 13 12 11 11 11 11 12 14 15 16 17 17 18 18 17 19 17 15 15 15 15 15 16 14 13 13 13 13 13 14 14 14 14
24 24 24 23 22 21 20 20 19 19 18 16 15 13 12 13 14 14 15 14 12 11 12 14 13 14 14 14 12 11 10 10 10 10 11 13 14 15 14 14 15 17 17 16 18 19 18 17 17 16 16 16 16 15 14 14 14 14 14 15 16 16
25 25 24 23 22 21 20 19 19 19 17 15 15 13 11 14 15 14 15 14 13 12 12 14 13 14 14 13 11 9 9 9 9 10 11 13 13 12 11 12 14 15 16 16 17 18 18 17 17 17 17 17 17 16 16 16 16 16 15 15 16 17
26 25 24 23 22 20 20 19 18 18 17 15 14 13 12 15 16 15 15 14 13 13 13 13 13 13 12 11 9 8 9 9 9 9 10 11 11 11 11 12 14 14 14 15 15 16 16 16 16 17 17 17 16 16 17 17 18 18 17 16 16 17
25 25 24 23 22 20 19 18 18 17 16 16 15 13 12 14 16 15 14 14 14 14 13 12 11 11 10 10 10 10 9 8 8 8 8 9 8 10 11 11 12 12 11 12 13 14 14 14 15 15 16 16 15 16 17 18 19 19 19 18 17 17
26 26 25 23 22 20 19 18 17 16 16 15 14 14 13 14 15 14 14 15 16 14 12 11 10 9 10 10 11 10 9 9 8 9 9 9 8 8 9 10 10 10 10 10 11 12 13 14 14 15 15 15 16 16 17 18 19 20 20 19 18 18
27 25 24 23 22 20 19 18 17 16 15 15 14 14 13 14 13 13 15 16 15 13 11 10 9 9 10 11 11 10 10 10 10 10 10 10 10 10 9 9 9 9 9 9 10 11 12 13 13 14 15 16 16 17 18 18 19 20 20 19 19 19
26 25 24 23 22 21 19 18 17 16 15 14 13 13 13 13 13 14 14 15 14 12 11 10 10 10 10 10 10 10 10 11 11 11 11 11 10 10 9 8 8 8 8 7 8 10 11 12 12 13 14 15 16 16 18 18 18 18 18 18 19 20
26 26 25 24 23 21 20 18 17 16 15 14 14 14 14 14 14 14 14 14 13 12 11 10 10 10 10 11 11 10 10 10 10 10 10 10 10 10 9 8 7 7 7 7 8 9 10 11 11 12 13 14 14 15 16 17 16 17 17 17 18 19
29 28 26 26 24 21 19 17 16 15 15 15 15 14 14 14 14 14 14 14 13 12 12 11 10 10 11 11 10 9 9 8 9 9 9 10 10 10 9 8 7 6 6 6 7 8 9 11 11 12 12 12 12 13 14 15 15 16 16 16 16 17
31 31 29 26 23 20 18 16 15 14 14 15 15 15 14 14 14 14 14 14 14 13 12 11 10 10 11 10 10 9 9 8 8 9 10 10 10 9 8 7 7 6 5 6 7 8 9 10 11 11 11 11 11 11 12 13 14 15 15 15 16 16
32 30 30 27 22 20 18 15 14 13 14 15 15 16 15 15 15 15 15 14 14 13 11 11 11 11 11 11 10 9 9 9 9 10 10 10 9 8 7 6 6 5 5 6 7 8 9 10 11 11 11 11 11 11 12 12 13 14 14 14 14 14
31 29 29 27 23 20 18 15 13 13 13 15 16 17 16 16 16 15 15 15 14 13 12 12 11 11 12 11 10 10 9 9 9 10 10 9 8 7 6 5 4 4 5 6 7 8 9 10 10 10 10 10 10 10 11 12 12 13 13 12 12 12
28 30 29 27 24 21 18 15 14 14 14 16 17 17 17 16 16 16 16 15 15 14 13 12 12 12 13 12 11 10 10 10 10 10 9 9 8 7 5 4 4 4 5 7 8 9 9 9 9 9 9 9 9 10 10 11 11 12 12 11 10 10
25 28 29 26 25 21 18 17 15 15 15 17 17 17 17 16 16 16 16 16 15 14 13 12 13 13 13 12 11 11 11 11 10 10 9 9 8 7 5 5 4 5 6 7 8 8 8 8 8 9 9 9 9 10 10 9 9 9 9 8 8 8
21 24 26 24 23 21 19 18 16 16 16 17 17 17 16 16 16 16 16 16 15 14 14 13 14 14 13 12 11 11 11 11 10 9 9 10 9 8 7 6 6 6 7 8 8 8 8 8 8 9 9 9 9 11 10 7 7 7 7 8 8 8
20 21 23 22 21 21 20 18 17 17 16 17 17 17 17 17 16 17 16 16 16 15 15 15 15 15 14 13 12 12 11 10 10 9 9 10 10 9 8 7 7 8 8 9 9 9 8 7 8 8 8 8 9 10 9 5 6 6 6 7 6 5
19 19 20 21 22 22 21 20 19 18 17 17 17 17 17 16 16 16 16 16 16 16 16 16 15 15 15 14 13 12 12 11 11 10 10 10 10 9 8 8 9 9 9 10 10 10 8 7 8 8 7 7 8 9 8 5 4 4 4 4 3 3
12 17 20 22 23 23 21 20 19 19 18 18 18 17 16 16 16 17 17 17 17 17 17 16 16 16 16 15 14 13 13 12 12 11 11 11 11 10 10 10 10 10 11 11 11 11 9 7 7 7 7 7 7 8 7 5 3 3 3 2 2 3
1 8 16 21 23 23 21 20 20 19 19 19 18 17 16 16 17 17 17 17 17 18 18 17 17 17 16 15 14 14 14 13 13 12 12 12 12 12 11 11 11 11 11 12 11 11 10 8 7 6 6 7 7 7 7 5 3 3 3 3 3 3
4 3 5 12 16 18 19 20 20 20 19 19 18 17 17 17 17 18 18 18 18 18 18 18 17 17 16 15 15 15 15 15 14 14 13 13 13 13 13 12 12 11 11 12 12 11 10 8 7 6 6 6 7 6 6 6 6 5 4 3 3 2
12 7 3 4 7 10 15 18 19 20 20 20 20 19 18 18 18 19 19 19 19 19 18 18 18 17 17 16 16 15 16 16 15 15 15 14 14 13 14 13 12 12 12 12 12 11 10 8 7 6 6 6 7 6 5 6 7 6 4 3 3 4
14 11 6 5 5 9 15 19 20 21 22 22 21 21 20 20 20 20 20 20 20 19 18 18 18 17 17 16 16 16 16 16 16 16 16 15 15 14 14 14 12 12 12 11 12 11 10 8 7 6 6 7 7 6 5 6 7 7 6 5 5 5
12 10 9 9 9 14 18 20 22 23 24 24 22 22 21 21 22 21 21 21 20 20 19 18 18 17 17 17 17 17 17 17 17 17 17 16 16 15 15 14 12 12 11 11 11 10 9 9 7 7 7 7 7 6 6 6 6 7 7 6 6 6
11 11 12 14 15 19 22 23 24 25 25 24 23 23 23 24 24 23 21 21 21 20 18 17 17 17 17 17 18 18 18 18 18 18 18 17 17 16 15 14 13 12 12 11 11 11 10 10 9 8 7 8 7 7 7 7 7 7 7 7 7 7
13 14 17 18 20 22 24 25 26 26 26 25 24 25 26 25 25 23 22 21 21 21 19 18 18 18 18 18 18 19 19 19 19 19 19 18 17 16 14 14 13 12 12 12 12 12 12 11 11 10 9 9 9 8 8 8 8 8 7 8 8 8
14 16 18 19 21 21 22 24 25 26 25 24 25 27 28 27 26 25 23 22 22 22 21 20 20 19 19 19 19 19 19 19 19 19 19 18 17 15 14 13 13 12 12 12 12 12 12 13 13 12 12 12 11 11 10 9 9 9 9 9 9 9
15 17 18 19 20 21 23 25 26 27 26 26 28 29 30 29 28 26 25 24 23 22 21 21 21 21 20 19 19 19 19 19 19 19 19 17 16 15 15 14 13 13 12 12 13 13 13 14 14 14 14 13 14 14 13 12 11 10 10 12 11 11
18 19 19 20 22 23 25 27 28 29 28 29 30 31 31 30 27 27 26 24 23 22 21 22 22 21 20 19 19 19 19 19 19 20 19 17 16 16 15 15 14 14 14 14 14 14 15 15 15 15 14 14 16 15 14 14 14 12 11 12 12 12
21 22 23 24 25 26 28 30 30 30 31 31 32 32 31 28 27 27 26 24 23 22 22 22 22 21 20 19 19 19 19 19 20 20 19 17 17 16 16 15 15 14 14 14 14 15 16 16 15 15 14 14 16 16 14 13 15 14 13 12 13 14
22 23 25 26 27 28 29 31 30 30 31 31 32 32 30 27 26 26 25 24 23 23 23 22 21 20 20 19 19 19 20 21 20 20 19 18 17 16 16 15 15 14 14 13 14 14 15 15 15 15 14 13 15 16 15 15 15 15 14 13 14 15
25 26 28 29 30 30 29 29 28 26 28 29 29 30 28 27 26 25 25 24 23 23 23 22 21 20 20 19 19 20 21 21 20 20 19 18 17 17 15 14 14 13 12 12 12 12 13 14 13 13 12 12 13 14 14 14 14 14 14 13 14 15
27 29 31 31 31 29 26 26 26 24 25 27 27 28 27 26 25 25 24 22 22 22 22 21 21 19 19 19 19 20 20 20 20 19 19 18 18 17 16 14 13 12 11 11 11 11 11 11 12 11 11 11 11 12 12 12 12 12 12 13 13 15
28 29 29 28 29 28 27 28 26 24 24 26 26 27 27 25 24 24 23 21 21 22 21 20 20 19 19 18 18 18 18 18 19 19 19 18 18 17 16 15 13 11 10 11 11 10 10 11 11 11 11 11 11 11 11 11 11 11 11 11 12 13
Wind_Direction
262 253 247 248 249 250 252 255 260 263 264 265 265 265 266 267 269 274 279 279 281 285 287 287 286 285 283 283 282 279 274 266 255 255 260 259 254 252 254 256 265 276 283 282 273 279 292 285 277 269 253 252 253 250 249 251 253 252 252 253 252 253
260 251 247 247 248 250 253 257 261 261 261 262 263 265 264 265 270 275 277 279 284 288 288 288 288 285 283 282 280 278 274 268 261 257 258 260 262 260 258 262 273 279 277 275 270 277 293 286 274 269 256 255 256 252 250 250 253 254 251 250 250 250
256 249 246 246 247 249 252 256 257 256 258 259 260 261 263 266 270 276 278 281 287 286 286 288 286 285 283 280 278 276 273 270 266 261 259 259 264 264 262 265 269 268 269 275 271 267 282 285 275 266 259 259 258 254 252 251 252 255 255 253 251 249
251 245 243 243 244 247 250 252 252 253 256 257 258 259 263 268 268 273 280 283 283 283 287 286 283 281 278 276 274 273 272 269 265 263 264 265 267 267 264 261 257 262 275 283 277 268 268 280 276 264 260 261 260 257 255 255 254 255 257 257 255 251
247 241 240 241 241 243 246 247 248 251 254 253 254 255 258 264 269 273 276 279 280 285 288 286 283 276 271 274 274 272 270 267 266 266 267 265 264 266 263 256 255 265 275 278 277 272 263 267 271 263 259 261 262 262 260 259 258 255 255 255 256 254
243 239 239 239 239 241 243 244 246 248 253 254 252 255 259 265 271 274 272 275 280 282 283 281 279 273 272 278 276 270 266 264 267 268 267 265 261 262 259 253 259 265 267 267 270 270 261 257 263 263 261 263 265 266 263 261 259 258 256 253 254 254
242 239 238 238 238 238 240 241 244 248 252 256 256 257 259 264 267 268 270 273 275 276 275 273 270 272 275 277 275 269 263 262 267 269 270 270 263 256 254 254 259 259 260 264 263 263 261 257 262 264 264 267 268 269 267 265 263 261 259 255 252 252
240 238 236 235 235 235 237 239 242 248 250 251 253 253 249 255 263 267 268 266 270 273 272 270 270 272 275 277 277 272 265 264 268 272 271 269 261 247 243 248 253 255 259 260 257 258 261 261 262 264 267 270 270 270 268 266 264 263 262 260 256 253
236 236 235 231 231 232 236 238 241 246 250 250 248 247 242 242 253 259 260 261 266 270 270 270 271 272 276 279 278 273 271 271 271 269 264 261 259 250 243 247 252 256 256 253 252 256 259 260 261 263 266 268 270 269 268 266 264 262 262 262 260 256
231 233 232 230 231 232 235 237 242 245 247 249 244 240 237 232 236 241 247 255 261 265 267 268 269 274 279 278 274 273 274 276 273 268 265 264 263 260 254 251 250 251 251 250 252 255 257 259 261 263 264 265 267 266 265 263 260 258 259 260 260 257
228 229 229 230 232 233 234 236 240 244 243 244 240 233 229 225 227 232 240 249 254 258 261 264 268 274 273 267 267 271 273 273 272 269 270 271 269 264 259 253 248 246 249 253 256 258 259 259 259 260 260 260 260 260 261 260 258 257 257 259 260 258
227 228 226 229 233 232 234 237 239 240 239 237 234 227 223 222 225 231 239 244 248 252 256 262 266 264 258 259 264 267 267 265 266 269 271 272 271 267 264 261 256 253 255 258 258 260 260 259 259 259 260 260 258 258 260 262 261 257 256 257 259 261
227 226 224 227 232 231 232 238 240 238 235 234 232 226 223 225 228 233 238 242 246 249 255 259 255 250 252 257 259 257 257 259 263 268 269 269 270 270 270 269 267 265 264 262 259 259 259 259 261 263 265 267 266 264 263 263 262 259 259 260 262 264
224 222 223 227 229 228 230 233 236 236 234 234 232 229 227 230 234 237 239 242 246 249 251 249 243 244 251 250 246 247 251 256 261 263 264 265 267 269 271 270 271 274 272 267 262 260 261 264 266 269 271 274 275 273 270 267 264 263 263 264 264 263
222 221 221 223 223 224 226 229 232 235 235 234 233 231 232 235 237 239 241 244 246 247 244 238 239 242 242 237 236 243 249 253 255 256 258 261 264 267 269 272 278 282 276 268 266 266 268 269 270 271 272 277 279 281 281 274 269 266 265 265 267 263
219 219 219 220 220 219 223 227 233 236 235 235 234 234 235 236 239 242 243 245 244 242 237 235 237 237 232 231 235 241 244 245 248 252 257 261 265 267 269 277 282 281 274 268 268 268 268 268 268 270 274 278 283 290 289 280 271 265 264 267 268 262
219 219 221 223 220 217 221 226 231 234 234 234 234 234 235 237 240 243 244 244 242 238 236 235 233 230 229 233 237 238 239 240 243 249 255 259 262 264 263 267 270 272 272 270 269 267 266 269 273 277 279 280 286 293 290 280 269 263 264 266 263 255
221 220 223 227 223 218 218 224 229 230 232 233 233 234 234 237 239 242 243 243 242 239 236 232 228 227 231 237 238 237 239 240 243 247 252 256 259 259 257 259 261 263 267 270 271 271 274 280 285 286 281 282 290 292 290 280 267 263 267 268 260 253
221 220 225 231 227 223 221 224 227 227 230 231 231 233 233 236 238 239 241 241 241 238 233 228 225 227 233 238 237 237 239 241 244 246 250 256 257 257 257 259 258 257 261 267 272 276 281 287 289 288 285 287 292 295 295 282 263 264 269 269 266 265
225 226 227 231 230 227 224 224 225 225 230 231 230 232 233 234 236 237 238 238 238 235 231 227 226 230 234 236 236 238 239 238 240 241 246 251 255 256 256 256 255 254 259 263 267 271 276 281 284 289 292 294 296 301 304 285 261 270 276 271 266 269
230 230 227 229 228 227 227 227 226 224 229 233 231 231 234 236 235 235 235 234 234 233 231 230 230 233 236 235 234 235 236 235 235 236 240 246 252 256 256 256 257 256 259 262 263 266 268 272 280 287 294 300 301 305 313 299 269 275 285 277 255 259
232 232 226 225 225 227 232 232 229 225 229 234 233 232 233 235 235 234 234 233 233 233 232 232 233 236 237 237 236 235 235 236 237 238 240 245 250 253 255 256 259 259 259 261 261 263 264 265 274 283 289 298 300 303 315 314 283 268 281 295 283 283
306 235 224 225 228 233 237 236 230 226 228 232 232 232 233 234 235 236 236 235 234 234 234 233 234 237 239 239 239 238 239 240 243 244 245 246 248 251 252 253 256 258 258 259 260 261 262 260 265 273 279 289 292 298 310 308 286 272 280 300 298 300
311 302 227 226 231 236 238 234 229 226 227 230 230 231 234 237 238 239 239 238 237 236 236 236 237 238 240 240 240 242 245 247 249 249 249 249 249 251 252 252 253 255 257 257 259 260 260 260 258 261 267 274 282 293 301 296 291 290 291 297 290 286
277 285 283 244 231 226 226 223 221 223 226 229 230 232 233 235 237 238 239 237 237 237 237 238 239 240 240 241 242 246 250 254 256 256 256 254 253 253 254 255 255 255 255 254 256 258 259 260 257 258 261 264 274 284 285 285 290 292 288 285 280 273
272 267 257 255 242 220 216 216 219 222 224 226 228 229 231 233 234 235 236 236 235 236 237 238 239 239 240 242 246 250 253 256 258 259 259 257 256 255 255 256 255 254 254 254 255 257 259 259 255 251 253 255 263 272 274 276 282 284 283 280 274 270
256 251 236 231 229 218 216 221 225 226 224 224 225 227 229 230 233 234 235 235 234 233 235 237 238 240 244 247 251 254 255 256 257 258 258 257 255 254 254 254 253 252 251 252 254 255 257 257 254 250 250 253 257 263 270 273 273 274 277 277 272 271
231 224 217 216 216 214 218 224 227 225 224 224 226 229 231 230 232 234 236 235 232 231 234 238 242 245 249 253 255 257 257 258 259 259 257 255 253 253 252 251 250 249 249 249 251 253 255 255 255 253 252 256 256 256 262 267 268 268 273 277 277 278
219 213 212 214 214 215 221 227 229 227 226 225 226 230 233 233 233 234 236 235 232 232 237 244 248 251 254 256 258 259 261 263 262 261 257 254 254 253 251 249 248 248 249 249 251 253 256 259 259 258 258 261 259 255 254 256 263 269 273 275 275 276
220 218 218 219 220 220 224 230 234 234 232 230 230 231 233 233 233 234 234 234 233 236 242 248 251 253 255 256 258 261 263 264 264 261 257 255 254 254 252 251 250 250 250 252 254 257 259 262 264 263 263 264 264 263 261 258 262 266 268 270 272 275
220 222 223 224 227 227 229 232 233 234 233 231 232 233 234 234 234 236 236 235 235 237 243 248 251 252 253 254 257 260 260 262 262 259 255 253 253 253 253 254 256 257 257 257 259 260 261 263 265 266 266 266 265 263 261 261 263 264 267 269 270 271
218 220 224 226 229 230 232 233 232 232 231 230 231 233 235 236 237 239 239 238 237 239 242 246 249 251 252 254 255 255 255 257 260 257 252 250 251 253 256 259 263 265 266 266 265 265 263 262 263 266 268 269 267 261 256 258 263 266 266 267 269 270
218 219 222 225 226 228 230 230 229 229 229 230 231 233 235 236 239 241 241 241 240 241 243 244 248 249 251 254 252 250 251 254 258 256 251 249 251 254 259 263 267 270 272 272 271 268 266 263 262 265 266 266 266 265 263 262 264 267 264 264 274 279
221 222 225 226 225 227 228 227 226 226 228 230 232 234 236 236 238 240 239 240 240 241 243 244 246 248 250 251 248 248 250 253 256 256 252 250 251 255 260 264 268 271 273 273 270 267 265 264 263 263 262 260 260 264 268 266 265 267 263 263 274 279
226 227 228 228 228 227 225 226 232 234 232 234 236 236 237 237 238 239 239 239 239 239 241 242 244 246 249 248 246 248 250 250 252 254 252 250 251 255 259 263 267 271 273 272 269 265 263 262 260 259 259 259 259 261 267 267 266 268 265 265 272 276
230 230 231 230 231 231 228 229 237 243 239 237 239 240 240 241 242 243 243 241 239 240 241 243 245 246 246 246 246 246 246 246 249 252 250 249 251 255 256 258 263 270 274 273 269 264 261 259 259 259 259 260 260 261 263 265 267 270 270 272 275 276
231 237 240 235 232 232 231 228 231 239 239 237 238 240 241 243 247 248 247 243 241 242 244 246 247 246 243 242 244 243 241 243 247 248 247 248 251 255 256 256 259 266 274 275 270 265 261 260 261 263 263 260 259 261 263 265 269 272 274 276 276 276
Height
5835 5835 5836 5836 5836 5837 5837 5838 5838 5838 5838 5838 5838 5838 5838 5837 5837 5837 5836 5836 5836 5837 5837 5836 5835 5835 5835 5835 5835 5835 5835 5835 5836 5837 5838 5838 5838 5838 5838 5837 5836 5835 5834 5833 5833 5834 5835 5835 5835 5835 5836 5836 5836 5836 5837 5837 5837 5838 5838 5839 5839 5840
5832 5833 5833 5833 5834 5835 5835 5836 5836 5836 5836 5836 5836 5836 5836 5836 5836 5835 5834 5834 5835 5835 5836 5835 5833 5833 5833 5833 5834 5833 5833 5834 5834 5835 5836 5837 5837 5837 5837 5836 5835 5834 5833 5832 5832 5833 5834 5833 5833 5834 5835 5835 5835 5835 5836 5836 5836 5837 5837 5838 5838 5839
5830 5830 5831 5831 5832 5833 5833 5833 5834 5834 5834 5834 5834 5835 5834 5834 5834 5833 5831 5832 5833 5834 5834 5835 5833 5831 5832 5832 5832 5832 5832 5832 5833 5833 5834 5835 5836 5836 5835 5835 5835 5833 5833 5832 5831 5832 5833 5832 5832 5833 5833 5833 5834 5834 5834 5835 5835 5836 5836 5837 5837 5838
5827 5828 5829 5829 5830 5831 5831 5831 5831 5831 5832 5832 5833 5833 5833 5832 5832 5831 5830 5830 5832 5832 5833 5833 5832 5831 5830 5830 5830 5830 5830 5830 5831 5832 5833 5834 5834 5834 5834 5834 5833 5833 5832 5831 5830 5831 5832 5831 5831 5831 5831 5832 5832 5833 5833 5834 5834 5835 5835 5835 5836 5837
5825 5826 5827 5828 5828 5829 5829 5829 5829 5829 5830 5831 5832 5832 5833 5831 5830 5830 5829 5828 5830 5831 5831 5830 5830 5829 5829 5829 5829 5829 5829 5829 5830 5831 5832 5832 5832 5832 5832 5832 5832 5832 5831 5831 5829 5829 5830 5830 5830 5830 5830 5830 5831 5832 5832 5832 5833 5833 5834 5834 5835 5835
5823 5824 5825 5825 5826 5826 5827 5827 5827 5827 5828 5829 5830 5831 5831 5829 5827 5827 5826 5827 5828 5829 5830 5829 5829 5828 5828 5827 5827 5827 5827 5828 5828 5829 5830 5830 5830 5831 5831 5831 5831 5831 5830 5829 5829 5828 5828 5829 5829 5829 5829 5830 5830 5830 5831 5831 5831 5831 5832 5833 5833 5834
5821 5822 5823 5823 5824 5824 5824 5824 5824 5825 5826 5827 5828 5829 5830 5827 5825 5825 5824 5825 5827 5827 5828 5828 5828 5828 5827 5826 5826 5826 5826 5826 5827 5827 5828 5828 5828 5829 5829 5830 5829 5829 5829 5828 5827 5827 5827 5828 5828 5828 5829 5829 5829 5829 5829 5829 5829 5829 5830 5831 5832 5832
5818 5818 5819 5820 5821 5822 5822 5822 5822 5823 5824 5825 5826 5827 5828 5826 5823 5823 5823 5824 5825 5825 5826 5826 5826 5826 5825 5825 5824 5824 5824 5825 5825 5826 5826 5826 5826 5827 5827 5828 5828 5828 5828 5827 5827 5826 5827 5827 5828 5828 5828 5828 5828 5828 5828 5827 5827 5827 5828 5829 5830 5831
5813 5814 5816 5817 5818 5819 5820 5820 5820 5821 5822 5822 5824 5824 5826 5825 5822 5822 5822 5822 5823 5823 5823 5823 5824 5824 5823 5823 5822 5822 5822 5823 5824 5824 5825 5825 5825 5826 5826 5826 5827 5827 5827 5827 5826 5826 5826 5826 5826 5827 5827 5826 5826 5826 5826 5826 5826 5826 5826 5827 5828 5829
5809 5812 5814 5815 5816 5817 5818 5818 5818 5819 5820 5820 5821 5822 5823 5823 5822 5822 5821 5821 5821 5821 5821 5822 5822 5822 5822 5821 5821 5821 5821 5822 5822 5823 5824 5824 5825 5825 5825 5825 5826 5826 5826 5826 5825 5825 5825 5825 5825 5825 5825 5825 5825 5825 5824 5824 5824 5823 5824 5825 5825 5826
5809 5811 5812 5813 5813 5814 5815 5816 5816 5817 5818 5819 5819 5820 5820 5820 5820 5820 5820 5820 5820 5820 5820 5820 5820 5820 5820 5820 5820 5820 5820 5821 5821 5822 5822 5823 5823 5824 5824 5824 5825 5825 5825 5825 5825 5824 5824 5824 5824 5824 5824 5824 5824 5823 5822 5821 5822 5822 5822 5823 5823 5823
5808 5809 5810 5810 5811 5812 5813 5814 5814 5815 5816 5816 5817 5817 5817 5818 5818 5818 5818 5818 5819 5819 5819 5819 5820 5819 5819 5819 5819 5819 5819 5820 5820 5820 5821 5821 5821 5822 5823 5823 5824 5824 5824 5824 5824 5824 5823 5823 5823 5823 5823 5823 5822 5821 5820 5820 5820 5821 5821 5822 5822 5822
5805 5806 5808 5808 5809 5811 5812 5812 5813 5814 5814 5814 5814 5815 5815 5815 5816 5816 5816 5817 5817 5818 5818 5818 5819 5818 5818 5818 5818 5818 5818 5819 5819 5820 5820 5820 5820 5821 5821 5822 5823 5823 5824 5824 5823 5823 5822 5822 5822 5822 5821 5821 5821 5820 5819 5819 5819 5819 5819 5820 5821 5821
5801 5803 5806 5807 5808 5809 5810 5811 5812 5812 5813 5813 5813 5813 5813 5813 5814 5814 5815 5815 5816 5816 5817 5817 5818 5817 5817 5817 5817 5817 5818 5818 5818 5819 5819 5819 5819 5820 5820 5821 5822 5822 5823 5822 5822 5822 5821 5821 5821 5821 5820 5820 5819 5819 5819 5818 5818 5818 5818 5819 5819 5820
5798 5801 5803 5805 5806 5807 5808 5809 5810 5810 5811 5811 5811 5811 5811 5811 5812 5812 5813 5813 5814 5815 5816 5816 5817 5817 5816 5816 5817 5817 5817 5817 5818 5818 5818 5818 5818 5819 5820 5820 5821 5822 5822 5821 5821 5821 5820 5820 5820 5820 5819 5819 5818 5818 5818 5817 5817 5817 5817 5817 5818 5818
5796 5799 5801 5802 5803 5805 5806 5807 5808 5808 5809 5809 5809 5809 5809 5810 5810 5810 5811 5812 5812 5813 5814 5815 5816 5816 5815 5816 5816 5816 5816 5816 5817 5817 5817 5817 5818 5818 5819 5820 5820 5821 5821 5820 5820 5820 5820 5820 5820 5819 5819 5818 5817 5817 5817 5816 5815 5815 5815 5816 5816 5817
5794 5797 5799 5800 5801 5802 5804 5805 5806 5806 5806 5807 5807 5807 5808 5808 5808 5809 5809 5810 5811 5812 5813 5814 5814 5814 5815 5815 5815 5816 5815 5816 5816 5816 5816 5816 5817 5818 5818 5819 5819 5820 5819 5819 5819 5819 5820 5820 5819 5818 5817 5817 5817 5816 5816 5815 5815 5814 5814 5815 5815 5816
5792 5796 5798 5799 5799 5800 5802 5803 5803 5804 5804 5804 5805 5805 5806 5806 5806 5807 5807 5808 5809 5811 5812 5812 5813 5813 5814 5814 5815 5815 5815 5815 5815 5815 5815 5816 5816 5817 5818 5818 5819 5819 5819 5818 5818 5818 5819 5819 5818 5817 5817 5816 5816 5815 5815 5815 5814 5813 5813 5813 5814 5815
5792 5795 5796 5797 5798 5799 5800 5800 5801 5802 5802 5802 5802 5803 5803 5804 5804 5805 5806 5807 5808 5809 5810 5811 5811 5812 5812 5813 5814 5814 5814 5814 5814 5814 5815 5815 5816 5816 5817 5818 5818 5818 5818 5817 5817 5817 5818 5819 5818 5817 5816 5816 5815 5814 5814 5814 5813 5813 5813 5813 5814 5814
5791 5793 5794 5795 5796 5797 5798 5799 5799 5799 5799 5799 5800 5801 5801 5802 5802 5803 5804 5805 5806 5808 5809 5809 5810 5810 5811 5812 5812 5813 5813 5813 5813 5814 5814 5815 5815 5816 5816 5817 5817 5817 5817 5816 5816 5816 5817 5818 5817 5817 5816 5816 5815 5814 5813 5813 5813 5812 5812 5812 5813 5814
5789 5791 5792 5793 5794 5795 5796 5796 5797 5798 5798 5798 5798 5799 5799 5800 5801 5801 5802 5803 5805 5806 5807 5808 5808 5809 5810 5811 5812 5812 5812 5813 5813 5813 5813 5814 5814 5814 5815 5816 5816 5816 5816 5815 5815 5815 5816 5817 5817 5816 5816 5815 5814 5814 5813 5813 5812 5812 5812 5812 5813 5814
5788 5789 5790 5790 5791 5793 5794 5795 5795 5796 5797 5796 5797 5797 5798 5798 5799 5800 5801 5802 5803 5805 5806 5806 5807 5808 5809 5810 5811 5811 5811 5812 5812 5812 5812 5812 5812 5813 5814 5814 5815 5815 5815 5815 5814 5814 5815 5816 5816 5816 5815 5815 5814 5814 5813 5813 5812 5812 5812 5812 5813 5813
5787 5787 5788 5788 5789 5790 5791 5793 5794 5794 5795 5795 5795 5796 5796 5797 5798 5799 5799 5801 5802 5803 5804 5805 5806 5806 5807 5809 5810 5810 5810 5811 5811 5811 5811 5811 5812 5812 5812 5813 5813 5814 5814 5814 5814 5813 5814 5815 5815 5815 5815 5814 5813 5813 5813 5813 5812 5812 5812 5812 5812 5813
5786 5787 5787 5787 5788 5788 5789 5791 5792 5793 5793 5793 5794 5794 5795 5796 5797 5797 5798 5799 5801 5802 5803 5804 5805 5805 5806 5807 5809 5809 5810 5810 5810 5810 5810 5810 5811 5811 5811 5812 5812 5812 5813 5813 5813 5813 5813 5813 5814 5814 5814 5813 5813 5813 5813 5813 5812 5812 5812 5812 5812 5812
5785 5786 5786 5786 5787 5787 5788 5789 5790 5790 5791 5791 5792 5793 5794 5795 5795 5796 5796 5798 5799 5800 5802 5803 5804 5804 5805 5806 5807 5808 5809 5809 5809 5809 5809 5809 5809 5810 5810 5810 5811 5811 5812 5812 5812 5812 5812 5812 5813 5813 5813 5813 5813 5812 5813 5812 5812 5812 5812 5812 5811 5811
5783 5784 5785 5785 5786 5787 5787 5787 5788 5788 5788 5789 5790 5791 5792 5793 5793 5794 5795 5796 5798 5799 5801 5802 5803 5803 5804 5805 5806 5807 5807 5808 5808 5808 5808 5808 5808 5808 5809 5809 5810 5810 5811 5811 5811 5810 5811 5811 5812 5812 5812 5812 5812 5812 5812 5812 5812 5812 5812 5812 5811 5811
5780 5781 5782 5784 5785 5785 5786 5787 5786 5785 5785 5786 5788 5789 5790 5791 5791 5792 5794 5795 5797 5798 5799 5801 5802 5802 5803 5804 5805 5806 5806 5807 5807 5807 5807 5807 5807 5807 5808 5808 5809 5809 5809 5810 5810 5810 5810 5810 5811 5811 5812 5811 5811 5811 5811 5812 5812 5811 5811 5811 5811 5811
5778 5779 5780 5781 5782 5783 5784 5784 5783 5783 5783 5785 5786 5787 5788 5788 5789 5791 5792 5794 5796 5797 5799 5800 5801 5801 5802 5803 5804 5804 5805 5806 5806 5806 5806 5806 5806 5806 5807 5807 5807 5808 5808 5808 5808 5809 5809 5809 5810 5810 5811 5811 5811 5811 5811 5811 5811 5811 5810 5810 5810 5810
5776 5777 5778 5779 5780 5781 5782 5782 5781 5781 5782 5784 5785 5785 5785 5786 5787 5789 5791 5793 5794 5796 5797 5799 5799 5800 5801 5802 5802 5803 5804 5804 5805 5805 5805 5805 5805 5805 5805 5806 5806 5806 5807 5807 5807 5808 5808 5808 5808 5809 5810 5810 5810 5811 5812 5811 5811 5810 5810 5809 5809 5809
5774 5775 5776 5777 5778 5779 5780 5780 5780 5780 5781 5783 5783 5783 5783 5784 5785 5787 5789 5791 5793 5794 5796 5797 5798 5799 5800 5800 5801 5802 5802 5803 5804 5804 5804 5804 5804 5804 5804 5804 5805 5805 5806 5806 5806 5807 5807 5807 5807 5808 5809 5809 5810 5810 5810 5811 5810 5810 5810 5809 5809 5808
5773 5773 5774 5775 5776 5776 5777 5777 5776 5777 5778 5780 5780 5780 5781 5782 5784 5786 5787 5788 5791 5793 5794 5795 5796 5797 5798 5799 5800 5800 5801 5802 5802 5803 5803 5803 5803 5802 5803 5803 5803 5804 5804 5805 5805 5805 5806 5806 5806 5807 5808 5809 5809 5809 5809 5809 5809 5808 5808 5808 5808 5808
5771 5771 5772 5773 5773 5773 5773 5773 5773 5774 5775 5776 5777 5777 5778 5780 5783 5784 5785 5787 5789 5791 5792 5793 5794 5795 5796 5797 5798 5799 5799 5800 5801 5801 5801 5801 5801 5801 5801 5802 5802 5802 5803 5803 5804 5804 5804 5805 5805 5806 5807 5807 5807 5807 5808 5808 5807 5808 5808 5806 5806 5806
5767 5768 5768 5769 5769 5769 5769 5769 5769 5770 5772 5772 5773 5774 5776 5778 5781 5782 5784 5785 5787 5788 5790 5791 5792 5793 5794 5795 5796 5797 5797 5798 5799 5799 5800 5800 5800 5800 5800 5800 5801 5801 5801 5801 5802 5802 5802 5803 5804 5805 5805 5806 5804 5804 5806 5806 5806 5807 5807 5805 5804 5804
5764 5764 5764 5764 5764 5764 5764 5765 5767 5768 5769 5770 5770 5772 5774 5776 5778 5780 5781 5783 5785 5786 5787 5788 5790 5791 5792 5793 5794 5795 5795 5796 5796 5797 5798 5798 5798 5799 5799 5799 5799 5799 5799 5800 5800 5800 5800 5801 5802 5803 5804 5804 5804 5803 5804 5805 5805 5806 5806 5804 5803 5803
5760 5759 5759 5759 5759 5761 5764 5766 5769 5770 5769 5769 5770 5771 5773 5775 5776 5778 5779 5781 5782 5783 5784 5786 5787 5788 5789 5791 5792 5793 5793 5794 5794 5795 5796 5796 5797 5797 5798 5798 5798 5798 5798 5798 5798 5799 5799 5800 5801 5802 5802 5803 5803 5802 5803 5804 5804 5805 5804 5804 5803 5803
5756 5755 5755 5756 5758 5761 5765 5767 5768 5770 5770 5769 5770 5772 5773 5775 5776 5777 5778 5779 5780 5780 5782 5783 5784 5786 5787 5788 5790 5791 5791 5792 5793 5793 5794 5795 5795 5795 5796 5796 5796 5797 5797 5797 5797 5797 5798 5798 5799 5800 5801 5801 5801 5801 5802 5802 5803 5803 5803 5803 5803 5802
5754 5753 5754 5757 5759 5762 5763 5764 5766 5767 5768 5768 5769 5771 5772 5773 5775 5776 5777 5778 5778 5778 5780 5781 5782 5784 5785 5787 5788 5789 5789 5790 5791 5792 5793 5793 5793 5794 5794 5795 5795 5795 5795 5795 5795 5796 5797 5797 5798 5798 5799 5800 5800 5800 5801 5801 5801 5802 5802 5802 5802 5800